Groton, CT

12:34 AM EDT on August 27, 2016 (GMT -0400)
Groton-New London

Weather History for KGON - March, 2013

Change the Weather History Date:

Sunday, March 3, 2013

  Actual Average Record
Temperature  
Mean Temperature 34 °F -  
Max Temperature 37 °F 44 °F 62 °F (1991)
Min Temperature 30 °F 26 °F 7 °F (1962)
Degree Days  
Heating Degree Days 32    
Moisture  
Dew Point 22 °F    
Average Humidity 63    
Maximum Humidity 76    
Minimum Humidity 51    
Precipitation  
Precipitation 0.00 in - - ()
Sea Level Pressure  
Sea Level Pressure 29.64 in    
Wind  
Wind Speed 11 mph (NW)    
Max Wind Speed 16 mph    
Max Gust Speed 20 mph    
Visibility 10 miles    
Events      
Averages and records for this station are not official NWS values.
T = Trace of Precipitation, MM = Missing Value Source: NWS Daily Summary

Daily Weather History Graph

Daily Weather History Graph

Search for Another Location

Airport or City:

Trip Planner

Search our weather history database for the weather conditions in past years. The results will help you decide how hot, cold, wet, or windy it might be!

Date:

Astronomy

Mar. 03, 2013 Rise Set
Actual Time 6:19 AM EST 5:41 PM EST
Civil Twilight 5:51 AM EST 6:09 PM EST
Nautical Twilight 5:19 AM EST 6:41 PM EST
Astronomical Twilight 4:47 AM EST 7:13 PM EST
Moon No Moon Rise 9:27 AM EST (3/3)
Length of Visible Light 12h 17m
Length of Day
11h 22m
Waning Gibbous, 64% of the Moon is Illuminated
Mar 3
Waning Gibbous
Mar 4
Last Quarter
Mar 11
New
Mar 19
First Quarter
Mar 27
Full

Hourly Weather History & Observations

Time (EST) Temp. Windchill Dew Point Humidity Pressure Visibility Wind Dir Wind Speed Gust Speed Precip Events Conditions
12:56 AM 34.0 °F 23.8 °F 24.1 °F 67% 29.65 in 10.0 mi NNW 16.1 mph - N/A   Overcast
1:56 AM 34.0 °F 29.8 °F 24.1 °F 67% 29.66 in 10.0 mi Variable 4.6 mph - N/A   Overcast
2:56 AM 33.1 °F 25.5 °F 24.1 °F 70% 29.65 in 10.0 mi NW 9.2 mph - N/A   Overcast
3:56 AM 32.0 °F 24.2 °F 23.0 °F 69% 29.64 in 10.0 mi NNW 9.2 mph - N/A   Overcast
4:56 AM 32.0 °F 23.6 °F 21.9 °F 66% 29.65 in 10.0 mi NW 10.4 mph - N/A   Overcast
5:56 AM 32.0 °F 23.0 °F 21.9 °F 66% 29.65 in 10.0 mi NNW 11.5 mph - N/A   Overcast
6:56 AM 30.9 °F 23.5 °F 21.0 °F 67% 29.66 in 10.0 mi NW 8.1 mph - N/A   Overcast
7:56 AM 32.0 °F 22.5 °F 21.0 °F 64% 29.67 in 10.0 mi NW 12.7 mph - N/A   Overcast
8:56 AM 33.1 °F 24.9 °F 21.0 °F 61% 29.66 in 10.0 mi NNW 10.4 mph - N/A   Overcast
9:56 AM 34.0 °F 25.0 °F 21.0 °F 59% 29.65 in 10.0 mi NW 12.7 mph - N/A   Mostly Cloudy
10:52 AM 37.4 °F 30.3 °F 21.2 °F 52% 29.64 in 10.0 mi North 10.4 mph - N/A   Mostly Cloudy
10:56 AM 36.0 °F 27.5 °F 21.9 °F 57% 29.64 in 10.0 mi NW 12.7 mph 16.1 mph N/A   Mostly Cloudy
11:26 AM 35.6 °F 28.6 °F 21.2 °F 56% 29.63 in 10.0 mi NW 9.2 mph - N/A   Mostly Cloudy
11:56 AM 37.0 °F 30.4 °F 21.0 °F 52% 29.63 in 10.0 mi North 9.2 mph - N/A   Overcast
12:56 PM 37.9 °F 30.9 °F 21.0 °F 51% 29.61 in 10.0 mi West 10.4 mph 16.1 mph N/A   Overcast
1:56 PM 37.0 °F 31.0 °F 21.0 °F 52% 29.60 in 10.0 mi WNW 8.1 mph 19.6 mph N/A   Overcast
2:56 PM 37.9 °F 32.1 °F 21.0 °F 51% 29.60 in 10.0 mi WNW 8.1 mph 18.4 mph N/A   Overcast
3:56 PM 37.0 °F 29.8 °F 21.9 °F 54% 29.60 in 10.0 mi NNW 10.4 mph - N/A   Overcast
4:56 PM 37.0 °F 29.8 °F 21.0 °F 52% 29.60 in 10.0 mi NW 10.4 mph - N/A   Overcast
5:56 PM 35.1 °F 26.9 °F 23.0 °F 61% 29.62 in 10.0 mi NW 11.5 mph - N/A   Overcast
6:56 PM 34.0 °F 27.2 °F 23.0 °F 64% 29.63 in 10.0 mi NNW 8.1 mph - N/A   Overcast
7:56 PM 30.9 °F 24.3 °F 23.0 °F 72% 29.65 in 10.0 mi NW 6.9 mph - N/A   Mostly Cloudy
8:56 PM 30.9 °F 22.2 °F 24.1 °F 76% 29.65 in 10.0 mi NW 10.4 mph - N/A   Clear
9:56 PM 30.9 °F 22.8 °F 24.1 °F 76% 29.66 in 10.0 mi NW 9.2 mph - N/A   Overcast
10:56 PM 30.9 °F 20.7 °F 23.0 °F 72% 29.66 in 10.0 mi NW 13.8 mph - N/A   Overcast
11:56 PM 30.0 °F 21.1 °F 21.9 °F 72% 29.65 in 10.0 mi NW 10.4 mph - N/A   Overcast